ZL2ARL Weather Reports


Display with metric or nautical units.
time (UTC)temp
F
wind
direction
speed
MPH
gust
MPH
rain 1hr
in
rain 24hr
in
rain mn
in
humidity
%
barometer
mb
20260504020032 57 334 15.0 23.0 0.00 0.00 0.00 73 1033.7
20260504015027 57 346 14.0 28.0 0.00 0.00 0.00 72 1033.7
20260504014022 58 326 16.0 28.0 0.00 0.00 0.00 71 1033.6
20260504013017 58 334 14.0 23.0 0.00 0.00 0.00 72 1033.7
20260504012032 57 345 14.0 21.0 0.00 0.00 0.00 74 1033.7
20260504011027 56 349 13.0 25.0 0.00 0.00 0.00 75 1033.8
20260504010022 57 350 16.0 24.0 0.00 0.00 0.00 75 1033.9
20260504005017 57 342 13.0 19.0 0.00 0.00 0.00 73 1033.9
20260504004032 57 338 13.0 21.0 0.00 0.00 0.00 72 1034.1
20260504003027 56 339 14.0 25.0 0.00 0.00 0.00 74 1034.3
20260504002022 57 350 15.0 25.0 0.00 0.00 0.00 74 1034.2
20260504001018 57 349 14.0 21.0 0.00 0.00 0.00 75 1034.4
20260504000033 56 347 17.0 25.0 0.00 0.00 0.00 75 1034.5
20260503235027 56 340 16.0 26.0 0.00 0.00 0.00 74 1034.7
20260503234023 57 343 15.0 23.0 0.00 0.00 0.00 73 1034.6
20260503233038 57 354 17.0 28.0 0.00 0.00 0.00 74 1034.5
20260503232053 57 350 13.0 23.0 0.00 0.00 0.00 74 1034.7
20260503231028 56 355 15.0 22.0 0.00 0.00 0.00 74 1034.7
20260503230042 56 353 16.0 25.0 0.00 0.00 0.00 75 1034.6
20260503225017 56 348 17.0 28.0 0.00 0.00 0.00 75 1034.7
20260503224033 56 356 13.0 25.0 0.00 0.00 0.00 76 1034.7
20260503223028 55 354 15.0 25.0 0.00 0.00 0.00 77 1034.5
20260503222023 55 341 17.0 23.0 0.00 0.00 0.00 77 1034.7
20260503221018 55 354 14.0 23.0 0.00 0.00 0.00 78 1034.6
20260503220033 54 354 14.0 21.0 0.00 0.00 0.00 79 1034.6
20260503215028 54 354 14.0 23.0 0.00 0.00 0.00 80 1034.7
20260503214043 54 348 13.0 21.0 0.00 0.00 0.00 80 1034.7
20260503213018 54 2 11.0 18.0 0.00 0.00 0.00 80 1034.7
20260503212034 54 352 13.0 21.0 0.00 0.00 0.00 80 1034.7
20260503211029 53 343 10.0 17.0 0.00 0.00 0.00 80 1034.7
20260503210024 53 357 12.0 18.0 0.00 0.00 0.00 80 1034.8
20260503205039 53 359 11.0 17.0 0.00 0.00 0.00 80 1034.8
20260503204034 53 2 10.0 17.0 0.00 0.00 0.00 79 1034.9
20260503203029 52 347 11.0 19.0 0.00 0.00 0.00 80 1034.8
20260503202025 52 347 11.0 19.0 0.00 0.00 0.00 81 1034.6
20260503201020 52 358 9.0 16.0 0.00 0.00 0.00 82 1034.5
20260503200035 51 2 11.0 17.0 0.00 0.00 0.00 82 1034.5
20260503195030 51 354 10.0 17.0 0.00 0.00 0.00 82 1034.4
20260503194024 51 8 13.0 21.0 0.00 0.00 0.00 82 1034.4
20260503193020 51 4 13.0 19.0 0.00 0.00 0.00 82 1034.2
20260503192035 51 17 12.0 21.0 0.00 0.00 0.00 82 1034.1
20260503191050 51 9 11.0 18.0 0.00 0.00 0.00 82 1034.2
20260503190025 51 5 10.0 14.0 0.00 0.00 0.00 82 1034.1
20260503185020 51 7 11.0 19.0 0.00 0.00 0.00 82 1034.1
20260503184156 51 5 10.0 19.0 0.00 0.00 0.00 82 1033.9
20260503183031 51 2 11.0 19.0 0.00 0.00 0.00 82 1034.1
20260503182026 51 8 11.0 18.0 0.00 0.00 0.00 81 1034.0
20260503181021 51 6 9.0 19.0 0.00 0.00 0.00 81 1034.1
20260503180017 51 10 10.0 18.0 0.00 0.00 0.00 82 1034.0
20260503175032 51 17 12.0 18.0 0.00 0.00 0.00 82 1034.1
20260503174027 51 6 9.0 17.0 0.00 0.00 0.00 82 1034.1
20260503173042 51 8 11.0 20.0 0.00 0.00 0.00 82 1034.0
20260503172017 51 6 8.0 15.0 0.00 0.00 0.00 82 1034.0
20260503171032 51 15 11.0 18.0 0.00 0.00 0.00 82 1034.1
20260503131035 50 9 11.0 17.0 0.00 0.00 0.00 84 1034.7
20260503081049 50 4 9.0 14.0 0.00 0.00 0.00 83 1033.9
20260503072024 50 353 10.0 16.0 0.00 0.00 0.00 83 1033.8
20260503071019 50 348 9.0 16.0 0.00 0.00 0.00 83 1033.7
20260503055020 51 358 10.0 15.0 0.00 0.00 0.00 80 1033.5
20260503054055 51 349 11.0 18.0 0.00 0.00 0.00 80 1033.4
20260503053030 51 349 11.0 21.0 0.00 0.00 0.00 79 1033.2
20260503052025 52 352 13.0 25.0 0.00 0.00 0.00 79 1033.3
20260503051020 52 354 14.0 20.0 0.00 0.00 0.00 78 1033.2
20260503050035 53 349 11.0 18.0 0.00 0.00 0.00 77 1033.3
20260503045031 53 341 14.0 21.0 0.00 0.00 0.00 77 1033.2
20260503044026 53 341 15.0 21.0 0.00 0.00 0.00 76 1033.1
20260503043021 54 344 12.0 21.0 0.00 0.00 0.00 75 1033.3
20260503042016 54 347 14.0 21.0 0.00 0.00 0.00 75 1033.2
20260503041031 55 352 13.0 20.0 0.00 0.00 0.00 74 1033.1
20260503040106 55 347 14.0 22.0 0.00 0.00 0.00 74 1033.1
20260503035021 56 345 14.0 20.0 0.00 0.00 0.00 74 1033.1
20260503034016 57 345 14.0 21.0 0.00 0.00 0.00 71 1033.2
20260503033051 57 339 14.0 25.0 0.00 0.00 0.00 71 1033.2
20260503032027 57 346 12.0 21.0 0.00 0.00 0.00 71 1033.3
20260503031022 58 353 12.0 20.0 0.00 0.00 0.00 69 1033.4
20260503030017 59 356 11.0 20.0 0.00 0.00 0.00 67 1033.3
20260503025032 58 353 15.0 21.0 0.00 0.00 0.00 68 1033.4
20260503024027 59 354 13.0 21.0 0.00 0.00 0.00 68 1033.5
20260503023022 58 321 14.0 23.0 0.00 0.00 0.00 69 1033.6
20260503022017 57 336 13.0 25.0 0.00 0.00 0.00 70 1033.6
20260503021032 57 334 16.0 27.0 0.00 0.00 0.00 70 1033.7